TimeEET,TemperatureF,Dew PointF,Humidity,Sea Level PressureIn,VisibilityMPH,Wind Direction,Wind SpeedMPH,Gust SpeedMPH,PrecipitationIn,Events,Conditions,WindDirDegrees,DateUTC
12:20 AM,50.0,39.2,66,30.12,3.1,NNE,3.5,-,N/A,,Haze,20,2013-02-13 22:20:00
12:50 AM,48.2,39.2,71,30.12,3.1,Variable,2.3,-,N/A,,Mist,0,2013-02-13 22:50:00
1:20 AM,48.2,41.0,76,30.12,3.1,NNE,4.6,-,N/A,,Mist,30,2013-02-13 23:20:00
1:50 AM,50.0,39.2,66,30.12,3.1,NE,4.6,-,N/A,,Haze,40,2013-02-13 23:50:00
2:20 AM,50.0,39.2,66,30.12,3.1,North,6.9,-,N/A,,Haze,10,2013-02-14 00:20:00
2:50 AM,50.0,39.2,66,30.09,3.1,NNE,6.9,-,N/A,,Haze,20,2013-02-14 00:50:00
3:20 AM,48.2,37.4,66,30.09,3.1,NNE,6.9,-,N/A,,Haze,20,2013-02-14 01:20:00
3:50 AM,51.8,39.2,62,30.09,3.1,NNE,8.1,-,N/A,,Haze,20,2013-02-14 01:50:00
4:20 AM,48.2,37.4,66,30.09,3.1,NNE,6.9,-,N/A,,Haze,20,2013-02-14 02:20:00
4:50 AM,46.4,37.4,71,30.09,3.1,North,6.9,-,N/A,,Haze,10,2013-02-14 02:50:00
5:20 AM,50.0,37.4,62,30.06,3.1,North,8.1,-,N/A,,Haze,10,2013-02-14 03:20:00
5:50 AM,50.0,37.4,62,30.06,3.1,North,6.9,-,N/A,,Haze,10,2013-02-14 03:50:00
6:20 AM,51.8,35.6,54,30.06,3.1,NNE,10.4,-,N/A,,Haze,20,2013-02-14 04:20:00
6:50 AM,51.8,35.6,54,30.06,3.1,NNE,10.4,-,N/A,,Haze,20,2013-02-14 04:50:00
7:20 AM,53.6,35.6,51,30.06,-9999.0,NNE,10.4,-,N/A,,Clear,20,2013-02-14 05:20:00
7:50 AM,55.4,35.6,47,30.06,-9999.0,NNE,11.5,-,N/A,,Clear,30,2013-02-14 05:50:00
8:20 AM,55.4,35.6,47,30.06,6.2,NNE,11.5,-,N/A,,Mostly Cloudy,20,2013-02-14 06:20:00
8:50 AM,57.2,35.6,44,30.06,6.2,NNE,12.7,-,N/A,,Mostly Cloudy,30,2013-02-14 06:50:00
9:20 AM,59.0,37.4,45,30.06,6.2,NNE,11.5,-,N/A,,Mostly Cloudy,20,2013-02-14 07:20:00
9:50 AM,60.8,35.6,39,30.06,6.2,NNE,13.8,-,N/A,,Mostly Cloudy,30,2013-02-14 07:50:00
10:20 AM,62.6,35.6,37,30.06,-9999.0,NNE,15.0,-,N/A,,Clear,30,2013-02-14 08:20:00
10:50 AM,64.4,37.4,37,30.06,-9999.0,NE,9.2,-,N/A,,Clear,40,2013-02-14 08:50:00
11:20 AM,66.2,37.4,35,30.04,-9999.0,NE,21.9,-,N/A,,Clear,40,2013-02-14 09:20:00
12:20 PM,66.2,39.2,37,30.01,-9999.0,NE,18.4,-,N/A,,Clear,50,2013-02-14 10:20:00
12:50 PM,66.2,39.2,37,29.98,-9999.0,NE,18.4,-,N/A,,Clear,40,2013-02-14 10:50:00
1:20 PM,66.2,37.4,35,29.98,-9999.0,NE,18.4,-,N/A,,Clear,40,2013-02-14 11:20:00
1:50 PM,68.0,37.4,33,29.95,-9999.0,NE,16.1,-,N/A,,Clear,50,2013-02-14 11:50:00
2:20 PM,68.0,37.4,33,29.95,-9999.0,NE,16.1,-,N/A,,Clear,50,2013-02-14 12:20:00
2:50 PM,68.0,37.4,33,29.95,-9999.0,NE,18.4,-,N/A,,Clear,40,2013-02-14 12:50:00
3:20 PM,68.0,37.4,33,29.92,-9999.0,NE,15.0,-,N/A,,Clear,40,2013-02-14 13:20:00
3:50 PM,66.2,39.2,37,29.92,-9999.0,NE,13.8,-,N/A,,Clear,40,2013-02-14 13:50:00
4:20 PM,66.2,39.2,37,29.92,-9999.0,NNE,13.8,-,N/A,,Clear,30,2013-02-14 14:20:00
4:50 PM,64.4,39.2,40,29.92,-9999.0,NE,13.8,-,N/A,,Clear,40,2013-02-14 14:50:00
5:20 PM,62.6,41.0,45,29.92,-9999.0,NE,13.8,-,N/A,,Clear,40,2013-02-14 15:20:00
5:50 PM,60.8,41.0,48,29.92,-9999.0,NE,11.5,-,N/A,,Clear,40,2013-02-14 15:50:00
6:20 PM,60.8,41.0,48,29.92,-9999.0,NE,13.8,-,N/A,,Clear,40,2013-02-14 16:20:00
6:50 PM,59.0,39.2,48,29.92,-9999.0,NE,12.7,-,N/A,,Clear,40,2013-02-14 16:50:00
7:20 PM,59.0,39.2,48,29.92,-9999.0,NE,12.7,-,N/A,,Clear,40,2013-02-14 17:20:00
7:50 PM,57.2,39.2,51,29.92,-9999.0,NE,9.2,-,N/A,,Clear,40,2013-02-14 17:50:00
8:20 PM,59.0,39.2,48,29.92,-9999.0,NNE,10.4,-,N/A,,Clear,30,2013-02-14 18:20:00
8:50 PM,59.0,39.2,48,29.95,-9999.0,NNE,9.2,-,N/A,,Clear,20,2013-02-14 18:50:00
9:20 PM,59.0,39.2,48,29.92,-9999.0,NNE,10.4,-,N/A,,Clear,20,2013-02-14 19:20:00
9:50 PM,59.0,39.2,48,29.92,-9999.0,NNE,13.8,-,N/A,,Clear,30,2013-02-14 19:50:00
10:20 PM,59.0,39.2,48,29.92,6.2,NNE,12.7,-,N/A,,Mostly Cloudy,30,2013-02-14 20:20:00
10:50 PM,59.0,39.2,48,29.92,6.2,NNE,12.7,-,N/A,,Mostly Cloudy,30,2013-02-14 20:50:00
11:20 PM,59.0,39.2,48,29.92,6.2,NE,12.7,-,N/A,,Mostly Cloudy,40,2013-02-14 21:20:00
11:50 PM,57.2,39.2,51,29.92,6.2,NE,12.7,-,N/A,,Mostly Cloudy,50,2013-02-14 21:50:00